Location: Newark
(41.1142°N, 73.9831°W)
Time: 13:37:38
(UTC+00:00)

ISS - Pass Details

Date: 29 September 2019
Orbit: 411 x 421 km, 51.6° (Epoch: 22 October)

Event Time Altitude Azimuth Distance (km) Brightness Sun altitude
Rises 23:07:14 0° 291° (WNW) 2,345 1.7 -5.7°
Reaches altitude 10° 23:10:04 10° 317° (NW) 1,482 -0.3 -6.2°
Maximum altitude 23:11:58 14° 352° (N) 1,245 -1.2 -6.6°
Drops below altitude 10° 23:13:55 10° 28° (NNE) 1,487 -1.2 -6.9°
Enters shadow 23:15:57 - 49° (NE) 2,082 -0.7 -7.3°
